Powrót do katalogu

STARLINK-3983

AktywnyŁącznośćVLEO
NORAD 52618·PAYLOAD·🇺🇸 United States

Wystrzelony May 14, 2022 z Cape Canaveral Space Force Station

Loading…

Następne Przeloty (najbliższe 24 godziny)

TLE

ŚwieżeSource: CelesTrak SupGP

Epoka: Sep 14, 2026, 13:12 UTC

1 52618C 22052W   26257.55048611  .00050173  00000+0  14356-2 0  2578
2 52618  53.1568 130.3913 0001270 100.0751 230.6841 15.35371264    18

Śledź STARLINK-3983 w czasie rzeczywistym z AllMySat

Download on the App Store